Location: Shenandoah County Park
(38.9356°N, 78.4524°W)
Time: 06:11:02
(UTC-04:00)

Transit 2A - Pass Details

Date: 17 June 2024
Orbit: 591 x 960 km, 66.7° (Epoch: 23 July)

Event Time Altitude Azimuth Distance (km) Brightness Sun altitude
Rises 02:51:03 0° 329° (NNW) 3,545 9.9 -23.7°
Reaches altitude 10° 02:53:32 10° 327° (NNW) 2,635 9.2 -23.5°
Maximum altitude 02:59:44 72° 245° (WSW) 1,001 6.3 -23.0°
Enters shadow 03:02:06 40° 172° (S) 1,376 6.9 -22.8°
